Miscellaneous Local Product
Issued by NWS Hastings, NE

Home | Current Version | Previous Version | Text Only | Print | Product List | Glossary On
Versions: 1 2 3 4 5 6 7 8 9 10 11 12 13 14 15 16 17 18 19 20 21 22 23 24 25 26 27 28 29 30 31 32 33 34 35 36 37 38 39 40 41 42 43 44 45 46 47 48 49 50
000
AXUS43 KGID 040502
MISGRI

GID CWA HOURLY WEATHER ROUNDUP
NATIONAL WEATHER SERVICE HASTINGS NE
1200 AM CDT TUE AUG 04 2015

NOTE: "FAIR" INDICATES FEW OR NO CLOUDS BELOW 12,000 FEET WITH NO
SIGNIFICANT WEATHER AND/OR OBSTRUCTIONS TO VISIBILITY.

...SOUTH CENTRAL NEBRASKA...

CITY           SKY/WX    TMP DP  RH WIND       PRES   REMARKS
GRAND ISLAND   MOCLDY    70  63  78 E8        29.98S
HASTINGS       PTCLDY    71  67  87 E8        29.97S
KEARNEY        PTCLDY    70  64  83 E8        29.97S
ORD            PTCLDY    69  63  81 E6        29.98R
YORK           MOCLDY    68  66  94 E7        29.98S
AURORA         MOCLDY    68  66  94 E7        29.98S
LEXINGTON      CLOUDY    72  67  85 E7        29.98R
HOLDREGE       MOCLDY    70  66  87 E8        29.97R
HEBRON         PTCLDY    72  67  83 E7        29.95S

...NEBRASKA PANHANDLE...

CITY           SKY/WX    TMP DP  RH WIND       PRES   REMARKS
CHADRON        MOCLDY    74  61  63 CALM      29.92R
ALLIANCE       MOCLDY    73  66  78 S15       29.99R
SCOTTSBLUFF    CLOUDY    76  51  41 S7        29.99S
SIDNEY         MOCLDY    71  50  47 SW8       30.04S

...WESTERN AND NORTH CENTRAL NEBRASKA...

CITY           SKY/WX    TMP DP  RH WIND       PRES   REMARKS
VALENTINE      NOT AVBL
AINSWORTH      PTCLDY    69  62  78 SE10      29.99S
ONEILL         PTCLDY    71  64  80 SE6       29.99F
BROKEN BOW     CLOUDY    71  63  75 SE9       29.99S
IMPERIAL       PTCLDY    68  57  68 N6        29.99R
NORTH PLATTE   MOCLDY    71  68  90 SE14      29.98R
MCCOOK         CLOUDY    74  71  91 E7        29.95S

...EASTERN NEBRASKA...

CITY           SKY/WX    TMP DP  RH WIND       PRES   REMARKS
NORFOLK        MOCLDY    67  64  90 E3        29.98F
SO SIOUX CITY  CLOUDY    69  63  81 S3        29.98R
TEKAMAH        CLOUDY    72  69  90 CALM      29.98R
COLUMBUS       MOCLDY    66  61  82 CALM      29.99S
ALBION         MOCLDY    68  62  81 E3        29.99S
OMAHA EPPLEY   CLOUDY    74  64  71 E6        29.97S
OFFUTT AFB     PTCLDY    68  65  90 NE5       29.96S
MILLARD        CLOUDY    72  66  82 CALM      29.97R
LINCOLN        PTCLDY    72  63  73 NE6       29.97F
NEBRASKA CITY  MOCLDY    70  63  80 E5        29.97S
BEATRICE       MOCLDY    72  68  88 E6        29.95F
FALLS CITY     CLEAR     71  69  93 E3        29.94S

...NORTHERN KANSAS...

CITY           SKY/WX    TMP DP  RH WIND       PRES   REMARKS
GOODLAND       MOCLDY    71  57  61 CALM      30.01S
HILL CITY      MOCLDY    79  67  66 S6        29.94R
NORTON         CLEAR     73  64  73 NE6       29.94S
PHILLIPSBURG   CLEAR     79  72  78 E7        29.94R HAZE
SMITH CENTER   CLEAR     73  70  88 E12       29.94R
HAYS           MOCLDY    79  63  57 S8        29.94F
RUSSELL        MOCLDY    78  68  71 S10       29.92S
CONCORDIA      MOCLDY    75  72  90 E6        29.93S
SALINA         MOCLDY    81  70  69 S8        29.92R
TOPEKA         CLEAR     76  71  85 CALM      29.92F



USA.gov is the U.S. government's official web portal to all federal, state and local government web resources and services.